Weather History for PAVD - August, 2013

Change the Weather History Date:

Friday, August 30, 2013

  Actual Average Record
Temperature  
Mean Temperature 51 °F -  
Max Temperature 60 °F 58 °F 72 °F (1968)
Min Temperature 42 °F 45 °F 38 °F (1990)
Degree Days  
Heating Degree Days 14    
Growing Degree Days 1 (Base 50)    
Moisture  
Dew Point 44 °F    
Average Humidity 77    
Maximum Humidity 93    
Minimum Humidity 63    
Precipitation  
Precipitation 0.00 in - - ()
Sea Level Pressure  
Sea Level Pressure 29.92 in    
Wind  
Wind Speed 2 mph (East)    
Max Wind Speed 6 mph    
Max Gust Speed -    
Visibility 10 miles    
Events      
Averages and records for this station are not official NWS values.
T = Trace of Precipitation, MM = Missing Value Source: NWS Daily Summary

Daily Weather History Graph

Daily Weather History Graph

Search for Another Location

Airport or City:

Trip Planner

Search our weather history database for the weather conditions in past years. The results will help you decide how hot, cold, wet, or windy it might be!

Date:

Astronomy

Aug. 30, 2013 Rise Set
Actual Time 6:33 AM AKDT 8:56 PM AKDT
Civil Twilight 5:45 AM AKDT 9:43 PM AKDT
Nautical Twilight 4:42 AM AKDT 10:45 PM AKDT
Astronomical Twilight 3:11 AM AKDT 12:12 AM AKDT
Moon 12:23 AM AKDT 6:10 PM AKDT
Length of Visible Light 15h 57m
Length of Day
14h 23m
Waning Crescent, 28% of the Moon is Illuminated
Aug 30
Waning Crescent
Sep 5
New
Sep 12
First Quarter
Sep 19
Full
Sep 26
Last Quarter

Hourly Weather History & Observations

Time (AKDT) Temp. Windchill Dew Point Humidity Pressure Visibility Wind Dir Wind Speed Gust Speed Precip Events Conditions
12:16 AM 46.4 °F 44.3 °F 41.0 °F 81% 29.88 in 10.0 mi NE 4.6 mph - N/A   Mostly Cloudy
12:36 AM 48.2 °F - 42.8 °F 82% 29.88 in 10.0 mi Calm Calm - N/A   Mostly Cloudy
12:56 AM 48.2 °F - 42.8 °F 82% 29.87 in 10.0 mi East 4.6 mph - N/A   Scattered Clouds
1:16 AM 46.4 °F - 42.8 °F 87% 29.87 in 10.0 mi Calm Calm - N/A   Clear
1:36 AM 48.2 °F - 44.6 °F 87% 29.88 in 10.0 mi Calm Calm - N/A   Scattered Clouds
1:56 AM 46.4 °F 45.2 °F 39.2 °F 76% 29.88 in 10.0 mi ESE 3.5 mph - N/A   Scattered Clouds
2:16 AM 46.4 °F 45.2 °F 42.8 °F 87% 29.88 in 10.0 mi East 3.5 mph - N/A   Clear
2:36 AM 46.4 °F 45.2 °F 42.8 °F 87% 29.88 in 10.0 mi ENE 3.5 mph - N/A   Clear
2:56 AM 46.4 °F - 42.8 °F 87% 29.88 in 10.0 mi Calm Calm - N/A   Partly Cloudy
3:16 AM 46.4 °F 44.3 °F 42.8 °F 87% 29.89 in 10.0 mi ENE 4.6 mph - N/A   Mostly Cloudy
3:36 AM 46.4 °F - 41.0 °F 81% 29.88 in 10.0 mi Calm Calm - N/A   Overcast
3:56 AM 44.6 °F - 41.0 °F 87% 29.88 in 10.0 mi Calm Calm - N/A   Mostly Cloudy
4:16 AM 44.6 °F 41.4 °F 39.2 °F 81% 29.88 in 10.0 mi ENE 5.8 mph - N/A   Mostly Cloudy
4:36 AM 44.6 °F - 37.4 °F 76% 29.88 in 10.0 mi Calm Calm - N/A   Scattered Clouds
4:56 AM 42.8 °F 39.3 °F 39.2 °F 87% 29.89 in 10.0 mi East 5.8 mph - N/A   Clear
5:16 AM 44.6 °F - 39.2 °F 81% 29.89 in 10.0 mi Calm Calm - N/A   Clear
5:36 AM 42.8 °F - 39.2 °F 87% 29.89 in 10.0 mi Calm Calm - N/A   Clear
5:56 AM 42.8 °F - 39.2 °F 87% 29.89 in 10.0 mi Calm Calm - N/A   Clear
6:16 AM 42.8 °F - 39.2 °F 87% 29.89 in 10.0 mi Calm Calm - N/A   Scattered Clouds
6:36 AM 42.8 °F - 39.2 °F 87% 29.90 in 10.0 mi Calm Calm - N/A   Scattered Clouds
6:56 AM 42.8 °F 39.3 °F 39.2 °F 87% 29.90 in 10.0 mi East 5.8 mph - N/A   Scattered Clouds
7:16 AM 44.6 °F 43.1 °F 41.0 °F 87% 29.90 in 10.0 mi ENE 3.5 mph - N/A   Scattered Clouds
7:36 AM 44.6 °F - 39.2 °F 81% 29.90 in 10.0 mi Calm Calm - N/A   Scattered Clouds
7:56 AM 44.6 °F - 41.0 °F 87% 29.91 in 10.0 mi Calm Calm - N/A   Mostly Cloudy
8:16 AM 46.4 °F - 41.0 °F 81% 29.91 in 10.0 mi Calm Calm - N/A   Mostly Cloudy
8:36 AM 48.2 °F - 42.8 °F 82% 29.92 in 10.0 mi Calm Calm - N/A   Mostly Cloudy
8:56 AM 48.2 °F - 46.4 °F 93% 29.92 in 10.0 mi Calm Calm - N/A   Mostly Cloudy
9:16 AM 51.8 °F - 46.4 °F 82% 29.92 in 10.0 mi Calm Calm - N/A   Mostly Cloudy
9:36 AM 51.8 °F - 44.6 °F 76% 29.91 in 10.0 mi Calm Calm - N/A   Mostly Cloudy
9:56 AM 51.8 °F - 46.4 °F 82% 29.91 in 10.0 mi Calm Calm - N/A   Mostly Cloudy
10:16 AM 53.6 °F - 44.6 °F 72% 29.92 in 10.0 mi Calm Calm - N/A   Mostly Cloudy
10:36 AM 53.6 °F - 44.6 °F 72% 29.92 in 10.0 mi Calm Calm - N/A   Mostly Cloudy
10:56 AM 53.6 °F - 46.4 °F 77% 29.92 in 10.0 mi Calm Calm - N/A   Mostly Cloudy
11:16 AM 55.4 °F - 44.6 °F 67% 29.92 in 10.0 mi Calm Calm - N/A   Mostly Cloudy
11:36 AM 55.4 °F - 44.6 °F 67% 29.92 in 10.0 mi Calm Calm - N/A   Mostly Cloudy
11:56 AM 55.4 °F - 46.4 °F 72% 29.93 in 10.0 mi Calm Calm - N/A   Mostly Cloudy
12:16 PM 57.2 °F - 46.4 °F 67% 29.93 in 10.0 mi WSW 4.6 mph - N/A   Mostly Cloudy
12:36 PM 55.4 °F - 48.2 °F 77% 29.92 in 10.0 mi Calm Calm - N/A   Mostly Cloudy
12:56 PM 57.2 °F - 46.4 °F 67% 29.92 in 10.0 mi Calm Calm - N/A   Mostly Cloudy
1:16 PM 59.0 °F - 48.2 °F 67% 29.92 in 10.0 mi Calm Calm - N/A   Mostly Cloudy
1:36 PM 59.0 °F - 48.2 °F 67% 29.92 in 10.0 mi Calm Calm - N/A   Mostly Cloudy
1:56 PM 60.8 °F - 48.2 °F 63% 29.92 in 10.0 mi Calm Calm - N/A   Mostly Cloudy
2:16 PM 59.0 °F - 48.2 °F 67% 29.92 in 10.0 mi SW 5.8 mph - N/A   Mostly Cloudy
2:36 PM 59.0 °F - 48.2 °F 67% 29.92 in 10.0 mi WSW 4.6 mph - N/A   Mostly Cloudy
2:56 PM 59.0 °F - 46.4 °F 63% 29.92 in 10.0 mi SSW 3.5 mph - N/A   Mostly Cloudy
3:16 PM 59.0 °F - 46.4 °F 63% 29.92 in 10.0 mi Calm Calm - N/A   Mostly Cloudy
3:36 PM 59.0 °F - 46.4 °F 63% 29.92 in 10.0 mi West 3.5 mph - N/A   Mostly Cloudy
3:56 PM 57.2 °F - 46.4 °F 67% 29.92 in 10.0 mi WSW 3.5 mph - N/A   Mostly Cloudy
4:16 PM 57.2 °F - 46.4 °F 67% 29.93 in 10.0 mi Calm Calm - N/A   Mostly Cloudy
4:36 PM 57.2 °F - 44.6 °F 63% 29.92 in 10.0 mi Calm Calm - N/A   Mostly Cloudy
4:56 PM 57.2 °F - 44.6 °F 63% 29.93 in 10.0 mi Calm Calm - N/A   Mostly Cloudy
5:16 PM 57.2 °F - 46.4 °F 67% 29.93 in 10.0 mi Calm Calm - N/A   Mostly Cloudy
5:36 PM 57.2 °F - 48.2 °F 72% 29.93 in 10.0 mi Calm Calm - N/A   Mostly Cloudy
5:56 PM 57.2 °F - 48.2 °F 72% 29.93 in 10.0 mi Calm Calm - N/A   Overcast
6:16 PM 57.2 °F - 48.2 °F 72% 29.93 in 10.0 mi ESE 3.5 mph - N/A   Overcast
6:36 PM 57.2 °F - 46.4 °F 67% 29.94 in 10.0 mi Calm Calm - N/A   Overcast
6:56 PM 57.2 °F - 46.4 °F 67% 29.94 in 10.0 mi East 3.5 mph - N/A   Overcast
7:16 PM 53.6 °F - 46.4 °F 77% 29.94 in 10.0 mi Calm Calm - N/A   Overcast
7:36 PM 55.4 °F - 46.4 °F 72% 29.94 in 10.0 mi East 4.6 mph - N/A   Overcast
7:56 PM 53.6 °F - 44.6 °F 72% 29.95 in 10.0 mi ENE 5.8 mph - N/A   Overcast
8:16 PM 53.6 °F - 46.4 °F 77% 29.95 in 10.0 mi East 4.6 mph - N/A   Overcast
8:36 PM 51.8 °F - 46.4 °F 82% 29.95 in 10.0 mi Calm Calm - N/A   Overcast
8:56 PM 50.0 °F - 44.6 °F 82% 29.95 in 10.0 mi East 4.6 mph - N/A   Mostly Cloudy
9:16 PM 48.2 °F - 44.6 °F 87% 29.95 in 10.0 mi East 3.5 mph - N/A   Mostly Cloudy
9:36 PM 48.2 °F - 42.8 °F 82% 29.95 in 10.0 mi East 3.5 mph - N/A   Mostly Cloudy
9:56 PM 48.2 °F - 44.6 °F 87% 29.96 in 10.0 mi Calm Calm - N/A   Overcast
10:16 PM 48.2 °F - 44.6 °F 87% 29.96 in 10.0 mi East 4.6 mph - N/A   Overcast
10:36 PM 48.2 °F - 42.8 °F 82% 29.96 in 10.0 mi ENE 4.6 mph - N/A   Overcast
10:56 PM 48.2 °F - 42.8 °F 82% 29.96 in 10.0 mi East 5.8 mph - N/A   Overcast
11:16 PM 48.2 °F - 42.8 °F 82% 29.97 in 10.0 mi East 4.6 mph - N/A   Overcast
11:36 PM 48.2 °F - 42.8 °F 82% 29.97 in 10.0 mi East 4.6 mph - N/A   Overcast
11:56 PM 48.2 °F - 42.8 °F 82% 29.97 in 10.0 mi ENE 4.6 mph - N/A   Overcast